Location: Cuyler (historical)
(38.1195°N, 100.5551°W)
Time: 10:14:14
(UTC+00:00)

Daily predictions for brighter satellites

Satellite Brightness Start Highest point End
(mag) Time Altitude Azimuth Time Altitude Azimuth Time Altitude Azimuth
CBERS 1 LM4 rocket 4.4 12:02:02 10° N 12:07:03 64° WNW 12:11:51 10° SSW
Cosmos 1674 2.9 12:03:33 10° SSW 12:07:06 45° W 12:10:41 10° N
Cosmos 1953 2.4 12:05:55 10° N 12:09:58 81° E 12:13:59 10° S
GEOS 3 Rocket 4.1 12:05:38 10° NNE 12:10:24 41° NW 12:15:09 10° WSW
SJ-12 4.1 12:06:48 10° N 12:10:41 46° WNW 12:14:34 10° SSW
OAO 2 Rocket 3.7 12:06:31 11° WSW 12:11:15 59° S 12:16:05 10° E
Cosmos 44 3.2 12:07:45 10° NW 12:12:36 70° WSW 12:17:06 10° SSE
Cosmos 1980 Rocket 3.7 12:11:19 10° WNW 12:14:22 15° W 12:17:26 10° SW
Cosmos 1538 Rocket 4.0 12:09:34 10° SSW 12:14:50 76° WNW 12:20:12 10° NNE
Cosmos 1626 2.2 12:13:58 10° SSW 12:17:35 54° W 12:21:13 10° N
Cosmos 1346 Rocket 3.1 12:14:02 10° SSW 12:17:49 43° WNW 12:21:41 10° N
BREEZE-M DEB (TANK) 4.4 12:19:43 10° NNW 12:22:22 27° NE 12:27:30 10° E
Cosmos 2237 4.3 12:17:52 10° NNW 12:23:38 89° WSW 12:29:20 10° SSE
COSMOS 2487 4.3 12:22:58 10° S 12:26:02 35° ESE 12:29:08 10° NE
COSMO-SKYMED 1 2.8 12:22:43 10° S 12:26:53 47° W 12:31:05 10° NNW
Cosmos 304 Rocket 3.8 12:25:34 10° NNW 12:30:24 87° WSW 12:35:13 10° SSE
